Estación de Hornitos

Ultimos registro cada 15 minutos 40
Estación Fecha / Hora Temperatura Humedad Lluvia Velocidad Dirección Radiación Presion
40 Hornitos 06-05-2026 10:00 21,2 25 0 0,9 59 438 1016,1
39 Hornitos 06-05-2026 09:45 20 28 0 0,4 71 378 1016,4
38 Hornitos 06-05-2026 09:30 18,9 32 0 0 115 338 1016,4
37 Hornitos 06-05-2026 09:00 16,9 37 0 0 233 301 1016,5
36 Hornitos 06-05-2026 08:45 14,4 46 0 0 124 253 1016,3
35 Hornitos 06-05-2026 08:30 11,9 52 0 0 84 223 1016,4
34 Hornitos 06-05-2026 08:15 8,6 63 0 0 239 139 1016,2
33 Hornitos 06-05-2026 08:00 7 62 0 0 239 40 1016,4
32 Hornitos 06-05-2026 07:45 6,7 61 0 0 239 19 1016,4
31 Hornitos 06-05-2026 07:30 6,4 62 0 0 239 16 1016,2
30 Hornitos 06-05-2026 07:15 6,5 62 0 0 239 9 1016
29 Hornitos 06-05-2026 07:00 6,7 60 0 0 239 0 1015,7
28 Hornitos 06-05-2026 06:45 6,9 60 0 0 239 0 1015,6
27 Hornitos 06-05-2026 06:30 6,8 60 0 0 239 0 1015,3
26 Hornitos 06-05-2026 06:15 6,8 61 0 0 239 0 1015
25 Hornitos 06-05-2026 06:00 6,7 60 0 0 239 0 1014,8
24 Hornitos 06-05-2026 05:45 7,2 59 0 0 239 0 1014,6
23 Hornitos 06-05-2026 05:30 7,2 59 0 0 239 0 1014,6
22 Hornitos 06-05-2026 05:15 7,3 60 0 0 239 0 1014,4
21 Hornitos 06-05-2026 05:00 7,4 60 0 0 239 0 1014,3
20 Hornitos 06-05-2026 04:45 7,8 59 0 0 239 0 1014,3
19 Hornitos 06-05-2026 04:30 8,2 58 0 0 239 0 1014,2
18 Hornitos 06-05-2026 04:15 8,6 59 0 0,4 239 0 1014,1
17 Hornitos 06-05-2026 04:00 8,3 59 0 0 239 0 1014,1
16 Hornitos 06-05-2026 03:45 8,7 58 0 0 219 0 1014,2
15 Hornitos 06-05-2026 03:30 8,2 60 0 0,4 243 0 1014,2
14 Hornitos 06-05-2026 03:15 8,7 57 0 0 16 0 1014,4
13 Hornitos 06-05-2026 03:00 8,7 57 0 0 256 0 1014,2
12 Hornitos 06-05-2026 02:45 8,8 58 0 0 256 0 1014,4
11 Hornitos 06-05-2026 02:30 9,3 57 0 0 256 0 1014,2
10 Hornitos 06-05-2026 02:15 9,7 57 0 0 256 0 1014,3
9 Hornitos 06-05-2026 02:00 10,1 57 0 0 258 0 1014,2
8 Hornitos 06-05-2026 01:45 10,2 58 0 0,4 260 0 1014
7 Hornitos 06-05-2026 01:30 10,3 58 0 0 261 0 1014,3
6 Hornitos 06-05-2026 01:15 10,5 59 0 0 264 0 1014,1
5 Hornitos 06-05-2026 01:00 10,2 57 0 0 188 0 1014
4 Hornitos 06-05-2026 00:45 10,4 58 0 0,4 241 0 1014
3 Hornitos 06-05-2026 00:30 10,9 59 0 0 237 0 1013,7
2 Hornitos 06-05-2026 00:15 11,1 59 0 0 237 0 1013,9
1 Hornitos 06-05-2026 00:00 11 59 0 0 237 0 1013,8